GFSCGP_850_dewp_021.txt.gz
Dewpoint
-2 -3 -3 -3 -1 -1 1 0 1 1 -1 1 4 6 9 13 15 15 15 16 15 15 13 10 10 13 14 14 14 14 13 14 14 14 13 13 13 14 14 14 14 13 13 12
-2 -2 -3 -4 -1 -1 -1 -0 0 -1 2 4 4 6 8 11 13 15 15 15 14 13 9 11 13 13 14 11 9 9 13 13 13 12 14 15 15 15 15 15 14 13 13 13
-0 -2 -3 -4 -2 -1 -1 -0 -0 -1 -2 5 7 4 7 9 12 13 14 14 13 12 9 11 10 13 13 9 9 11 14 12 13 14 15 16 16 15 14 13 11 11 11 11
-0 -2 -2 -1 -1 -1 1 -2 -2 -1 -1 -3 1 -3 4 3 7 9 11 13 13 12 9 10 11 10 9 8 12 9 9 10 12 14 14 14 15 14 11 10 11 12 12 11
-0 -0 -0 0 -1 -2 0 -3 -2 -2 -2 -0 0 -2 0 5 7 6 9 11 11 12 9 8 9 10 10 10 8 9 9 10 12 12 14 15 12 10 11 12 12 11 11 11
-2 -2 -2 -2 -2 -2 -3 -2 -3 -1 -1 -1 0 -1 -3 2 7 7 7 9 11 12 10 8 11 10 10 10 8 10 9 11 12 12 14 11 10 10 11 11 12 12 12 12
0 -1 -3 -3 -2 -2 -2 0 2 -1 -0 -2 2 3 2 4 6 8 8 8 11 11 11 9 10 10 10 10 10 9 10 11 10 12 10 10 9 9 11 12 12 12 13 12
-1 -5 -1 -2 -1 -2 -1 0 1 1 -1 -2 3 3 0 8 11 12 11 10 10 11 12 9 11 11 10 11 11 10 11 11 13 12 11 10 9 9 10 10 10 12 13 13
1 -0 -1 -2 -2 -4 -2 -0 -3 1 1 -0 -1 0 3 10 11 13 11 11 11 12 13 10 13 11 12 11 12 13 11 12 12 11 10 10 9 10 10 10 10 10 13 12
-0 -1 -3 -3 -3 -4 -2 -3 -0 -1 5 3 1 4 2 8 10 12 13 12 12 13 14 14 13 13 13 13 13 13 14 13 11 11 10 10 10 10 11 11 11 10 12 13
-1 -1 -5 -3 -2 -1 -2 -2 -1 -1 0 1 1 -0 5 7 8 11 13 12 12 11 14 16 14 13 13 13 13 14 13 11 10 11 10 10 10 11 12 11 11 11 11 12
-1 0 0 -4 -4 -3 -3 -1 1 0 4 2 2 -1 -1 6 8 11 13 13 11 10 9 14 14 12 13 13 14 13 9 10 10 11 10 10 10 12 13 12 11 11 10 11
-0 1 0 -1 -4 -2 -1 -1 -1 2 3 6 2 -0 5 9 9 11 13 13 11 10 7 9 12 12 13 13 12 10 11 11 11 11 10 10 11 12 12 12 11 11 10 11
-1 3 3 -5 -3 -1 1 -1 -2 1 2 3 1 2 2 6 10 11 12 13 12 10 9 12 11 9 9 11 11 10 12 11 11 11 11 11 12 11 11 11 11 11 11 11
2 5 3 0 -2 -4 -4 0 -1 2 3 1 1 3 3 3 8 9 11 12 12 12 10 15 12 9 7 11 12 12 13 12 12 12 11 11 11 12 11 10 11 11 11 11
5 5 5 3 3 0 1 -1 -1 1 2 2 2 4 3 6 9 10 11 13 14 14 12 14 13 8 9 12 12 13 13 13 13 13 12 12 11 12 11 10 11 11 11 11
8 8 7 3 5 5 5 4 4 4 3 3 6 5 8 9 9 10 11 13 15 14 14 12 13 11 11 13 13 14 14 14 13 14 12 12 12 12 11 10 11 11 11 10
9 10 7 3 7 6 3 4 4 5 7 7 8 9 10 11 12 12 12 13 14 14 14 14 13 12 13 14 14 14 14 13 13 13 14 13 12 12 11 11 11 11 11 10
6 9 9 7 5 4 5 11 11 9 7 13 11 9 11 12 11 13 11 12 13 13 14 13 13 13 13 14 14 14 14 14 14 13 14 15 14 13 12 11 11 11 11 10
6 8 7 10 6 4 4 10 12 12 7 12 12 10 11 11 10 12 13 11 10 11 12 13 13 12 12 14 15 15 15 15 15 14 14 14 15 13 13 12 12 12 11 11
5 7 4 8 9 8 7 11 12 10 7 13 12 11 12 12 12 12 13 12 12 12 12 12 13 13 14 14 14 13 13 12 11 10 11 14 14 14 14 13 13 12 12 11
5 4 3 6 7 7 11 12 11 13 14 13 13 13 12 11 12 13 13 12 12 12 13 13 13 13 13 13 11 10 9 8 8 8 10 13 13 13 14 13 13 12 12 11
8 7 3 5 2 11 12 13 13 13 14 13 12 12 11 11 12 12 12 12 12 13 13 12 9 12 12 11 9 9 10 10 11 11 12 13 13 13 13 13 13 12 12 11
10 11 12 11 11 11 11 12 12 13 13 13 13 12 12 12 11 12 12 12 12 12 11 11 11 11 9 9 9 10 10 11 11 11 11 12 12 12 12 11 11 11 10 10
8 10 11 11 11 11 11 11 12 13 13 13 12 12 12 12 12 11 11 11 10 10 10 11 10 9 8 9 9 10 11 11 11 11 11 11 11 11 11 9 9 9 9 9
7 10 11 11 10 11 10 11 11 12 13 12 12 11 11 11 11 10 9 9 9 10 11 9 8 8 8 9 10 11 11 11 10 11 10 10 10 9 9 9 9 8 8 8

GFSCGP_850_dewp_024.txt.gz
Dewpoint
-3 -5 -6 -7 -6 -5 -2 -4 -5 -4 -2 -1 -2 1 2 8 11 11 13 15 16 15 15 15 15 16 14 15 15 16 16 15 15 13 17 15 16 16 14 16 14 14 14 13
-3 -5 -6 -6 -4 -4 -5 -2 -3 -1 -2 -2 -3 -1 -0 7 9 11 12 14 15 15 15 14 13 15 13 16 17 14 14 16 15 16 16 16 15 16 14 15 15 14 13 14
-6 -4 -4 -4 -5 -5 -5 -5 -2 -0 -2 -3 0 -2 -2 4 8 10 11 12 14 14 14 13 14 14 16 15 15 12 15 14 15 14 14 15 13 15 16 15 15 15 14 13
-3 -6 -4 -4 -4 -4 -3 -3 -2 -1 -2 -4 -3 -4 -2 -4 2 5 8 10 12 13 13 13 12 12 15 15 15 14 15 13 13 14 15 13 16 14 14 14 15 13 14 13
-2 -2 -2 -2 -4 -4 -1 -2 -1 -2 -3 -3 -4 -4 -5 -2 -2 3 5 8 10 12 13 13 13 11 12 12 15 11 11 12 13 13 13 15 13 14 15 14 12 12 14 14
-3 -3 -3 -4 -4 -4 -2 -2 -1 -1 -5 -2 -3 -3 -6 -5 0 3 6 7 9 11 13 13 13 13 11 13 13 10 11 14 14 13 12 9 9 9 13 13 14 14 15 15
-2 -3 -4 -4 -2 -3 -2 -1 0 0 -2 -2 0 -2 -4 -4 1 5 6 7 9 11 12 13 13 14 13 13 13 15 16 13 15 14 9 8 9 7 11 12 14 14 14 14
-1 -3 -4 -4 -3 -3 -2 -3 -1 2 -1 -2 1 -2 -2 2 5 7 8 9 9 11 11 11 12 15 14 13 14 14 16 15 14 11 8 9 8 10 14 13 12 14 14 14
-4 -5 -4 -3 -4 -5 -2 -1 -5 -0 -1 -2 -5 -3 -3 -2 3 5 8 9 9 11 11 12 13 14 14 14 15 15 15 12 12 9 9 9 8 9 11 12 14 14 14 13
-4 -1 -6 -4 -4 -3 -3 -4 -1 -2 2 3 -1 -0 -1 -2 -3 4 11 10 12 13 13 13 14 14 14 14 14 13 10 12 11 9 9 10 9 10 13 14 12 11 11 12
-6 -3 -3 -5 -2 -2 -2 -1 -1 -2 0 0 1 -0 -2 -2 -3 2 10 10 12 13 15 15 14 14 14 15 11 13 13 13 14 12 9 9 10 14 14 14 13 12 11 12
-5 -3 -3 -5 -6 -5 -4 -2 -1 1 4 -1 2 -1 -5 -2 3 6 9 11 11 11 14 16 15 15 15 14 14 16 15 14 15 11 8 9 12 14 13 13 13 12 11 12
-1 -2 0 -1 -4 -4 -4 -4 -2 0 4 2 2 -1 0 1 5 8 10 11 11 11 14 16 16 16 15 14 16 14 14 14 15 14 11 14 15 15 11 11 10 11 11 11
-1 1 0 -4 -1 -4 -2 -4 -3 -0 2 0 0 -1 -1 -0 3 9 10 12 12 11 13 15 15 16 13 13 15 13 14 14 14 14 14 14 15 14 11 10 10 11 11 11
0 5 1 -2 -2 -4 -5 -4 -3 0 1 2 -1 0 -1 3 7 6 10 13 13 13 11 14 14 15 15 16 15 14 15 14 15 15 14 15 15 14 11 9 11 11 11 11
3 5 3 0 -1 -1 -2 -4 -2 -2 -1 -0 -1 0 5 7 8 8 10 13 13 13 13 14 14 13 14 15 15 15 15 15 15 15 15 15 15 12 10 10 11 11 11 11
5 2 4 0 0 1 1 -2 -3 -3 -2 -0 0 1 7 8 10 10 10 11 12 12 13 15 15 13 14 15 16 16 16 16 16 16 15 16 15 14 11 10 11 11 11 11
6 8 2 -0 3 4 -2 2 0 1 1 2 4 6 9 10 12 12 12 12 13 13 13 15 15 15 16 16 16 15 16 16 16 16 16 16 16 14 12 11 11 11 11 10
3 7 2 3 1 -2 -1 4 3 3 1 5 7 7 8 10 11 13 14 13 14 15 15 15 16 15 15 13 13 13 13 14 15 16 15 16 15 14 12 12 11 12 11 11
1 6 7 3 3 2 -2 9 10 10 5 8 9 8 8 10 5 10 12 14 15 15 15 14 13 13 13 13 13 13 13 13 13 13 13 15 15 15 14 13 12 12 12 11
3 4 2 2 4 0 6 9 10 9 8 12 11 11 11 11 13 13 12 12 11 11 13 13 13 13 12 12 12 13 13 13 12 11 11 13 14 14 14 13 13 12 12 12
1 2 -0 0 1 4 8 9 9 13 14 13 13 13 13 13 12 12 12 12 12 12 12 13 13 13 13 13 12 12 11 9 8 7 8 10 13 13 14 14 13 13 12 12
5 2 1 -1 -1 10 10 12 14 14 14 14 13 13 13 12 12 12 12 12 13 13 13 12 13 12 13 13 12 11 8 8 8 9 11 12 13 13 13 13 12 13 12 11
9 9 4 8 6 9 11 12 12 13 14 14 14 13 13 13 13 12 12 12 12 12 13 13 12 12 11 10 9 8 8 10 11 11 11 12 12 12 12 11 11 11 10 10
7 10 8 7 10 10 10 11 12 13 14 14 13 13 13 13 13 13 12 12 12 12 11 10 11 10 9 9 10 10 10 11 11 11 11 11 11 11 10 10 10 10 9 9
6 10 8 7 11 11 12 13 13 12 13 13 12 12 12 13 12 12 12 11 11 10 10 10 10 9 9 10 10 11 11 11 11 11 11 10 10 10 9 9 9 9 8 8

GFSCGP_850_dewp_030.txt.gz
Dewpoint
-8 -7 -8 -11 -11 -9 -8 -6 -7 -8 -9 -4 -5 -4 -4 2 2 7 11 13 13 14 14 15 15 15 15 15 16 17 15 14 11 11 13 14 16 15 14 15 15 15 16 15
-6 -8 -10 -10 -8 -9 -10 -11 -10 -10 -8 -4 -4 -5 -6 -4 0 2 8 13 14 14 14 15 15 16 16 16 16 17 15 14 12 12 11 13 16 17 17 16 14 14 13 13
-7 -8 -8 -8 -9 -11 -11 -10 -9 -7 -5 -4 -4 -3 -3 -5 -1 -0 1 11 13 13 13 15 15 16 16 16 17 17 16 14 12 14 16 16 14 13 15 15 14 15 16 15
-8 -10 -7 -7 -9 -10 -8 -7 -10 -9 -6 -4 -5 -1 0 -2 1 0 2 4 11 12 14 15 15 15 16 16 17 17 16 16 16 14 15 13 14 14 14 14 15 13 14 14
-6 -7 -7 -6 -10 -11 -8 -4 -4 -7 -5 -4 -5 -5 4 -0 -2 1 3 4 6 12 14 15 15 15 16 16 17 18 17 17 17 16 14 15 14 14 15 15 15 14 14 16
-5 -6 -7 -8 -9 -9 -9 -5 -5 -6 -5 -1 -3 -5 -2 3 4 -2 2 3 6 11 13 14 14 15 16 16 17 17 16 17 17 16 13 12 12 12 15 13 15 13 14 14
-4 -5 -6 -8 -7 -8 -7 -5 -1 1 1 4 7 1 0 -5 -3 -2 1 4 5 11 13 13 14 14 15 15 15 17 17 16 16 16 12 9 8 12 15 14 15 15 14 14
-2 -3 -7 -8 -7 -5 -4 -4 -1 4 1 5 4 7 4 -4 -4 -0 2 2 6 10 12 13 14 15 15 15 15 16 15 17 17 16 14 11 16 15 15 15 15 14 13 14
-3 -2 -7 -7 -7 -7 -4 -1 -4 -2 -2 -3 -3 2 1 2 -2 0 4 4 7 9 11 13 14 15 15 15 15 15 16 15 16 16 15 14 12 13 12 13 14 13 10 12
-3 -1 -6 -7 -8 -8 -6 -7 -2 -2 3 3 -3 6 10 9 8 5 5 5 8 9 10 12 13 15 14 14 14 14 15 15 16 16 15 15 15 14 14 15 14 11 11 13
-5 -3 -4 -5 -4 -4 -5 -4 -6 -5 -1 1 3 6 8 8 4 9 7 7 9 9 10 11 13 14 14 14 15 15 15 15 16 16 16 15 16 15 14 15 13 11 12 14
-5 -4 -1 -3 -6 -7 -7 -3 -3 -1 4 0 1 5 3 5 5 -1 5 9 9 10 10 12 14 14 14 14 15 16 15 16 16 15 16 15 15 15 14 14 13 14 14 14
-4 -3 -1 -0 -4 -7 -6 -6 -6 -2 5 6 6 14 8 7 6 2 8 10 10 11 12 13 14 14 14 15 15 15 15 15 15 15 15 15 15 14 13 13 14 14 15 13
-3 -0 -1 -1 -1 -1 -0 -4 -6 -5 0 1 -1 6 9 10 11 11 9 11 11 13 14 14 14 14 15 15 14 12 13 14 15 15 15 15 14 14 12 14 13 14 14 12
-3 2 -0 -3 -5 -4 -2 -0 0 -5 -4 -1 -2 4 9 11 12 10 11 11 11 14 14 15 15 15 15 16 12 8 14 14 14 14 15 15 15 14 13 14 12 13 12 12
-3 4 1 1 -2 -4 -5 -7 -7 -8 -6 -5 -4 0 10 9 5 7 13 11 11 13 14 15 16 16 16 14 12 14 13 14 14 15 15 15 15 14 14 13 10 11 11 9
4 3 6 4 -1 -2 -1 -5 -6 -6 -8 -6 -2 9 11 13 13 12 13 12 12 12 13 15 15 16 15 12 14 14 14 15 15 15 15 15 15 15 14 14 10 11 10 10
7 10 7 5 4 5 -1 2 -2 -1 -5 -3 -3 3 11 12 11 10 8 11 12 13 12 14 15 16 15 15 14 14 15 15 15 15 15 15 15 15 14 14 13 11 11 10
1 4 6 6 5 2 -3 5 4 2 1 -4 -1 0 10 8 13 14 13 13 12 12 12 14 14 14 14 15 15 15 15 15 15 15 15 14 15 15 15 15 14 12 11 11
-3 7 4 4 5 4 2 1 1 2 3 4 8 13 13 12 14 14 16 17 16 15 15 15 15 15 14 15 16 16 15 15 16 15 15 15 16 15 15 15 14 14 12 12
-0 3 4 3 3 2 1 -3 7 14 12 11 12 15 12 14 15 14 15 16 16 17 17 16 16 15 16 16 16 15 16 15 15 14 14 13 14 15 16 15 15 14 13 12
3 3 2 3 3 2 -4 -4 3 14 12 12 12 13 13 14 13 13 14 14 15 15 15 15 15 15 15 15 15 15 15 14 13 13 12 10 10 15 15 14 14 13 13 12
3 2 3 3 2 5 12 14 14 13 14 13 13 13 13 13 13 13 14 14 14 14 14 14 14 14 14 14 15 14 13 11 10 9 9 9 11 12 13 13 13 13 12 12
1 1 5 5 6 8 10 11 14 14 14 14 13 12 13 13 13 14 13 14 13 13 13 13 13 12 12 12 12 11 11 10 9 9 10 11 11 12 12 12 12 12 11 11
5 5 7 7 8 8 10 12 12 13 13 13 13 13 13 14 13 13 13 13 14 13 13 13 12 11 11 11 10 10 9 9 10 10 11 11 11 11 11 11 11 11 10 10
6 11 9 12 10 12 13 12 12 11 13 13 13 13 13 14 13 13 13 13 13 13 12 12 12 11 10 10 9 10 10 10 11 11 11 11 11 10 10 10 10 10 10 9

GFSCGP_850_dewp_033.txt.gz
Dewpoint
-7 -5 -4 -5 -8 -8 -7 -7 -6 -7 -4 -3 -3 -1 3 3 10 11 11 12 13 13 13 14 14 14 14 15 15 15 14 14 14 11 11 11 11 13 15 14 15 15 16 14
-6 -4 -6 -7 -7 -8 -9 -9 -7 -8 -3 -3 -3 -2 -2 4 4 11 12 13 13 14 14 14 15 15 15 16 16 15 15 14 12 11 11 11 12 14 15 16 16 15 14 14
-6 -4 -7 -7 -7 -9 -11 -9 -8 -7 -5 -5 -2 0 -1 -2 2 11 12 13 13 14 14 15 15 15 15 15 16 17 15 14 13 12 9 11 13 14 14 16 15 14 13 14
-7 -9 -6 -6 -6 -9 -8 -8 -5 -7 -5 -3 -4 1 1 2 3 3 13 14 14 14 14 15 16 16 16 15 17 17 16 14 13 13 11 13 14 15 15 15 15 14 13 15
-3 -6 -6 -4 -7 -10 -8 -6 -2 -1 -3 -1 -1 1 1 2 5 7 6 13 13 14 14 15 15 15 15 16 17 17 16 15 14 14 14 14 15 15 15 14 13 14 13 15
-5 -6 -6 -6 -7 -9 -8 -6 -2 -2 -3 0 5 4 6 3 5 9 5 4 13 14 15 15 15 15 16 16 16 17 17 17 15 15 15 16 15 15 15 12 14 14 14 15
0 -3 -5 -7 -5 -7 -7 -4 2 4 4 6 4 3 6 2 4 6 7 11 13 15 15 15 14 15 16 16 17 17 16 16 16 15 14 11 11 13 13 13 13 15 13 11
2 2 -4 -6 -6 -3 -3 -3 2 4 4 7 5 5 5 2 2 2 4 9 13 14 14 14 14 14 16 15 16 16 15 16 16 15 13 12 14 14 14 13 14 13 11 11
1 1 -3 -7 -8 -6 -4 0 -3 0 1 1 5 5 5 5 4 4 4 8 12 13 13 14 14 14 14 15 15 16 14 15 16 15 12 12 15 15 12 14 13 10 11 14
-2 3 -5 -7 -7 -6 -5 -4 -2 2 2 4 2 7 8 7 8 8 8 8 12 13 13 14 14 15 14 15 15 16 15 15 16 15 13 14 14 13 14 13 13 9 12 14
-4 1 1 -3 -3 -2 -3 -3 -3 -3 2 3 4 10 8 9 9 9 11 11 10 11 12 13 14 14 15 14 15 15 15 15 16 14 15 15 15 14 14 13 13 10 14 13
-3 -0 2 1 -3 -4 -3 -2 2 3 1 4 3 8 8 9 9 11 14 12 9 11 12 14 15 15 14 14 15 15 15 14 15 15 15 15 15 14 14 13 15 15 13 12
1 1 2 1 -0 -3 -2 -4 -4 1 6 6 8 11 8 9 11 10 9 6 11 11 11 14 14 14 14 15 13 7 14 15 15 15 14 15 15 13 12 13 13 14 12 10
-1 3 4 2 3 1 1 -0 -1 1 3 3 3 7 12 10 9 9 11 9 11 13 13 14 14 14 14 15 9 6 11 15 15 14 15 16 14 14 12 12 13 13 11 11
2 4 4 2 -0 -3 -2 0 1 0 2 3 -0 11 11 10 10 9 3 0 3 13 14 14 14 14 15 14 12 8 9 15 15 14 15 15 14 14 12 12 10 14 10 8
0 4 2 4 2 -1 -0 -1 1 0 -1 -1 9 11 10 9 6 6 5 4 6 10 15 14 14 15 15 15 11 12 14 15 14 14 15 15 15 14 14 12 10 12 10 7
5 7 5 6 4 4 5 2 3 2 2 -0 -2 9 10 12 10 9 7 6 8 13 15 15 15 15 15 15 11 13 15 14 14 14 14 14 15 14 14 13 11 12 11 10
8 10 10 9 8 10 4 2 1 3 4 4 10 11 10 10 10 12 15 14 12 13 15 15 16 16 15 10 13 15 14 14 14 15 15 15 15 14 14 14 14 11 12 11
3 6 8 8 8 6 4 3 3 4 6 10 12 10 11 13 8 9 14 15 14 12 15 15 15 15 15 14 14 15 14 14 14 14 15 15 15 15 15 15 14 13 13 12
-1 6 6 6 9 9 5 3 3 4 12 14 11 12 13 9 11 11 9 15 16 15 15 16 16 16 15 16 15 15 15 10 15 13 13 13 13 15 14 15 14 14 13 12
1 3 7 7 7 5 3 4 3 7 11 11 12 11 10 10 8 5 15 16 16 16 15 15 14 15 15 15 15 15 13 14 13 13 13 13 13 15 16 15 15 14 14 13
4 5 3 6 7 7 5 7 13 9 4 14 14 14 14 14 13 14 14 14 16 16 16 16 16 15 15 15 15 15 15 14 14 13 13 12 12 14 15 14 14 14 13 12
6 5 4 2 5 13 13 14 14 11 14 13 13 13 13 12 13 14 14 15 14 15 15 15 14 14 14 15 15 14 13 13 12 11 10 9 9 14 13 13 13 13 12 12
7 8 7 6 10 13 14 14 14 14 14 13 13 13 13 14 14 14 14 13 13 13 13 13 13 13 13 13 13 12 12 11 11 9 9 9 11 12 12 12 12 12 12 12
7 10 12 11 12 12 13 14 14 13 13 13 14 14 13 14 14 13 13 13 13 13 13 13 12 11 11 11 11 11 11 9 9 9 10 11 11 11 11 12 12 11 11 11
8 11 12 13 12 12 12 11 13 13 13 13 13 14 14 13 12 12 13 13 13 12 12 12 11 10 10 10 10 9 9 10 10 10 11 11 11 11 10 11 10 10 10 10